EW4382 Varnamo SE current weather conditions

sailwx.info

Wind from 355

Air temperature 22.8° C
Dewpoint 17.2° C

Last reported at 2020-Aug-09 20:00 UTC.
Time now 2020-Aug-09 20:22 UTC

Location: N 57°12' E 014°02'.
View on Google Maps.

See reports from other nearby stations

  
Tides and Currents Weather Stations Pressure Air Temp Water Temp Dewpoint Dewpoint Depression Visibility Wind Speed Wind Dir Waves Ship Positions
date/time (UTC)wind fromknots sea level pressurealtimeterstation pressurevisibilityair tempwater tempwave heightnotes
2020-Aug-09 20:00 355 22.8
2020-Aug-09 19:45 355 22.8
2020-Aug-09 19:30 355 23.9
2020-Aug-09 19:15 355 23.9
2020-Aug-09 19:00 318 25.0
2020-Aug-09 18:45 360 25.6
2020-Aug-09 18:30 311 27.2
2020-Aug-09 18:15 302 27.2
2020-Aug-09 18:00 315 28.3
2020-Aug-09 17:45 318 28.9
2020-Aug-09 17:30 311 28.9
2020-Aug-09 17:15 083 28.9
2020-Aug-09 17:00 064 28.9
2020-Aug-09 16:45 009 28.9
2020-Aug-09 16:30 009 30.0
2020-Aug-09 16:15 009 28.9
2020-Aug-09 16:00 333 29.4
2020-Aug-09 15:45 046 30.0
2020-Aug-09 15:31 345 30.0
2020-Aug-09 15:16 338 29.4
2020-Aug-09 15:02 313 30.0
2020-Aug-09 14:46 053 29.4
2020-Aug-09 14:32 232 30.0
2020-Aug-09 14:16 355 30.6
2020-Aug-09 14:01 205 30.6
2020-Aug-09 13:45 360 30.6
2020-Aug-09 13:31 282 30.6
2020-Aug-09 13:16 190 31.1
2020-Aug-09 13:02 255 30.6
2020-Aug-09 12:46 275 30.0
2020-Aug-09 12:31 212 30.0
2020-Aug-09 12:15 309 28.9
2020-Aug-09 12:01 065 29.4
2020-Aug-09 11:47 360 30.0
2020-Aug-09 11:31 156 31.1
2020-Aug-09 11:16 156 30.6
2020-Aug-09 11:01 175 30.0
2020-Aug-09 10:45 201 28.9
2020-Aug-09 10:30 101 28.9
2020-Aug-09 10:15 196 27.8
2020-Aug-09 10:00 069 27.8
2020-Aug-09 09:45 227 27.2
2020-Aug-09 09:30 115 27.2
2020-Aug-09 09:15 005 26.1
2020-Aug-09 09:00 059 26.1
2020-Aug-09 08:45 059 26.1
2020-Aug-09 08:30 074 25.6
2020-Aug-09 08:15 031 25.6
2020-Aug-09 08:00 348 25.0
2020-Aug-09 07:45 019 23.9
2020-Aug-09 07:31 024 23.3
2020-Aug-09 07:16 355 22.8
2020-Aug-09 07:01 013 22.2
2020-Aug-09 06:47 011 21.7
2020-Aug-09 06:31 322 21.1
2020-Aug-09 06:16 346 20.6
2020-Aug-09 06:01 342 19.4
2020-Aug-09 05:45 345 19.4
2020-Aug-09 05:31 334 18.9
2020-Aug-09 05:00 013 17.2
2020-Aug-09 04:46 333 16.7
2020-Aug-09 04:30 319 15.6
2020-Aug-09 04:16 311 15.0
2020-Aug-09 04:01 219 15.0
2020-Aug-09 03:45 320 15.0
2020-Aug-09 03:31 320 15.0
2020-Aug-09 03:15 320 15.0
2020-Aug-09 03:00 320 15.6
2020-Aug-09 02:46 320 15.6
2020-Aug-09 02:30 308 15.0
2020-Aug-09 02:15 317 15.6
2020-Aug-09 02:00 317 15.6
2020-Aug-09 01:45 325 15.6
2020-Aug-09 01:30 325 16.1
2020-Aug-09 01:15 325 16.1
2020-Aug-09 01:00 325 16.1
2020-Aug-09 00:45 325 16.7
2020-Aug-09 00:30 325 16.7
2020-Aug-09 00:15 325 17.2
2020-Aug-09 00:00 325 17.2
2020-Aug-08 23:45 325 17.8
2020-Aug-08 23:30 325 17.8
2020-Aug-08 23:16 325 18.3
2020-Aug-08 23:02 325 18.3
2020-Aug-08 22:47 325 18.3
2020-Aug-08 22:31 314 18.9
2020-Aug-08 22:17 314 19.4
2020-Aug-08 22:01 314 19.4
2020-Aug-08 21:48 314 19.4
2020-Aug-08 21:31 314 20.0
2020-Aug-08 21:17 314 20.6
2020-Aug-08 21:02 314 21.1
2020-Aug-08 20:46 314 21.7
2020-Aug-08 20:31 314 22.2
2020-Aug-08 20:16 322 22.2
2020-Aug-08 20:01 321 22.8
2020-Aug-08 19:46 321 22.8
2020-Aug-08 19:31 321 23.3
2020-Aug-08 19:16 208 23.9
2020-Aug-08 19:01 208 25.6
2020-Aug-08 18:46 208 26.7
2020-Aug-08 18:30 208 26.7
2020-Aug-08 18:16 208 27.2
2020-Aug-08 18:01 208 27.8
2020-Aug-08 17:32 224 28.9
2020-Aug-08 17:16 205 28.3
2020-Aug-08 17:01 182 28.3
2020-Aug-08 16:45 162 28.3
2020-Aug-08 16:31 136 28.3
2020-Aug-08 16:15 153 28.3
2020-Aug-08 16:01 126 28.9
2020-Aug-08 15:45 157 29.4
2020-Aug-08 15:30 134 29.4
2020-Aug-08 15:15 154 0 gusting 4 28.9
2020-Aug-08 15:01 204 29.4
2020-Aug-08 14:45 111 28.9
2020-Aug-08 14:30 119 29.4
2020-Aug-08 14:15 200 28.9
2020-Aug-08 14:00 150 28.9
2020-Aug-08 13:45 209 28.9
2020-Aug-08 13:30 147 28.3
2020-Aug-08 13:15 218 28.3
2020-Aug-08 13:00 229 28.3
2020-Aug-08 12:45 132 28.9
2020-Aug-08 12:30 103 28.9
2020-Aug-08 12:15 138 28.3
2020-Aug-08 12:00 131 0 gusting 4 27.8
2020-Aug-08 11:45 140 27.8
2020-Aug-08 11:30 136 27.2
2020-Aug-08 11:15 103 27.2
2020-Aug-08 11:00 123 28.3
2020-Aug-08 10:46 103 27.8
2020-Aug-08 10:31 080 27.2
2020-Aug-08 10:16 323 26.7
2020-Aug-08 10:01 119 27.2
2020-Aug-08 09:47 201 26.7
2020-Aug-08 09:32 142 26.7
2020-Aug-08 09:16 138 24.4
2020-Aug-08 09:01 044 23.9
2020-Aug-08 08:45 073 23.9
2020-Aug-08 08:31 101 23.9
2020-Aug-08 08:16 071 22.8
2020-Aug-08 08:00 103 21.7
2020-Aug-08 07:45 067 21.1
2020-Aug-08 07:30 098 20.6
2020-Aug-08 07:15 036 18.9
2020-Aug-08 07:00 321 17.8
2020-Aug-08 06:45 323 16.7
2020-Aug-08 06:30 013 16.1
2020-Aug-08 06:15 342 16.1
2020-Aug-08 06:00 324 15.0
2020-Aug-08 05:45 355 15.0
2020-Aug-08 05:30 330 14.4
2020-Aug-08 05:15 315 13.9
2020-Aug-08 05:00 329 13.3
2020-Aug-08 04:45 284 13.3
2020-Aug-08 04:30 240 13.3
2020-Aug-08 04:15 240 12.8
2020-Aug-08 04:00 240 12.2
2020-Aug-08 03:45 240 12.2
2020-Aug-08 03:30 240 12.2
2020-Aug-08 03:15 240 12.2
2020-Aug-08 03:00 240 12.2
2020-Aug-08 02:45 240 12.8
2020-Aug-08 02:30 240 12.8
2020-Aug-08 02:19 240 12.8
2020-Aug-08 02:02 240 12.8
2020-Aug-08 01:46 240 13.3
2020-Aug-08 01:31 240 13.3
2020-Aug-08 01:17 240 13.3
2020-Aug-08 01:01 240 13.9
2020-Aug-08 00:46 188 13.9
2020-Aug-08 00:31 188 13.9
2020-Aug-08 00:16 188 14.4
2020-Aug-08 00:01 188 14.4
2020-Aug-07 23:47 188 15.0
2020-Aug-07 23:31 188 15.0
2020-Aug-07 23:16 188 15.6
2020-Aug-07 23:01 188 15.6
2020-Aug-07 22:46 188 16.7
2020-Aug-07 22:31 188 17.2
2020-Aug-07 22:16 188 17.8
2020-Aug-07 22:00 188 18.9
2020-Aug-07 21:45 188 19.4
2020-Aug-07 21:31 188 19.4
2020-Aug-07 21:15 178 20.0
2020-Aug-07 21:00 154 20.0
2020-Aug-07 20:45 154 20.6
2020-Aug-07 20:30 154 21.1
2020-Aug-07 20:15 159 21.1
2020-Aug-07 20:00 155 21.7